Time,TemperatureF,DewpointF,PressureIn,WindDirection,WindDirectionDegrees,WindSpeedMPH,WindSpeedGustMPH,Humidity,HourlyPrecipIn,Conditions,Clouds,dailyrainin,SoftwareType,DateUTC
2013-09-09 00:02:00,71.3,68.0,29.91,East,89,0.0,-999.0,88,-99.99,,,0.00,weatherlink.com 1.10,2013-09-09 04:02:00,
2013-09-09 00:17:00,70.9,68.0,29.92,East,89,1.0,-999.0,89,-99.99,,,0.00,weatherlink.com 1.10,2013-09-09 04:17:00,
2013-09-09 00:32:00,70.4,67.0,29.92,East,89,0.0,-999.0,90,-99.99,,,0.00,weatherlink.com 1.10,2013-09-09 04:32:00,
2013-09-09 00:47:00,70.1,67.0,29.92,East,90,0.0,-999.0,90,-99.99,,,0.00,weatherlink.com 1.10,2013-09-09 04:47:00,
2013-09-09 01:03:00,69.7,67.0,29.92,East,89,0.0,-999.0,91,-99.99,,,0.00,weatherlink.com 1.10,2013-09-09 05:03:00,
2013-09-09 01:17:00,69.2,67.0,29.92,East,89,0.0,-999.0,92,-99.99,,,0.00,weatherlink.com 1.10,2013-09-09 05:17:00,
2013-09-09 01:32:00,68.9,67.0,29.92,East,89,0.0,-999.0,92,-99.99,,,0.00,weatherlink.com 1.10,2013-09-09 05:32:00,
2013-09-09 01:47:00,68.7,67.0,29.92,East,89,0.0,-999.0,93,-99.99,,,0.00,weatherlink.com 1.10,2013-09-09 05:47:00,
2013-09-09 02:02:00,68.6,67.0,29.93,East,89,0.0,-999.0,93,-99.99,,,0.00,weatherlink.com 1.10,2013-09-09 06:02:00,
2013-09-09 02:17:00,68.2,66.0,29.93,East,89,0.0,-999.0,93,-99.99,,,0.00,weatherlink.com 1.10,2013-09-09 06:17:00,
2013-09-09 02:32:00,68.0,67.0,29.92,East,89,0.0,-999.0,95,-99.99,,,0.00,weatherlink.com 1.10,2013-09-09 06:32:00,
2013-09-09 02:47:00,67.8,66.0,29.92,East,89,0.0,-999.0,94,-99.99,,,0.00,weatherlink.com 1.10,2013-09-09 06:47:00,
2013-09-09 03:02:00,67.6,66.0,29.92,East,89,0.0,-999.0,95,-99.99,,,0.00,weatherlink.com 1.10,2013-09-09 07:02:00,
2013-09-09 03:17:00,67.5,66.0,29.92,East,89,0.0,-999.0,95,-99.99,,,0.00,weatherlink.com 1.10,2013-09-09 07:17:00,
2013-09-09 03:32:00,67.3,66.0,29.91,East,89,0.0,-999.0,95,-99.99,,,0.00,weatherlink.com 1.10,2013-09-09 07:32:00,
2013-09-09 03:47:00,67.1,66.0,29.91,East,89,0.0,-999.0,95,-99.99,,,0.00,weatherlink.com 1.10,2013-09-09 07:47:00,
2013-09-09 04:02:00,66.9,66.0,29.91,East,89,0.0,-999.0,96,-99.99,,,0.00,weatherlink.com 1.10,2013-09-09 08:02:00,
2013-09-09 04:17:00,66.8,66.0,29.92,East,89,0.0,-999.0,96,-99.99,,,0.00,weatherlink.com 1.10,2013-09-09 08:17:00,
2013-09-09 04:32:00,66.6,66.0,29.92,East,89,0.0,-999.0,96,-99.99,,,0.00,weatherlink.com 1.10,2013-09-09 08:32:00,
2013-09-09 04:47:00,66.4,65.0,29.91,East,89,0.0,-999.0,96,-99.99,,,0.00,weatherlink.com 1.10,2013-09-09 08:47:00,
2013-09-09 05:02:00,66.3,65.0,29.91,East,89,0.0,-999.0,96,-99.99,,,0.00,weatherlink.com 1.10,2013-09-09 09:02:00,
2013-09-09 05:17:00,66.2,65.0,29.91,East,89,0.0,-999.0,96,-99.99,,,0.00,weatherlink.com 1.10,2013-09-09 09:17:00,
2013-09-09 05:32:00,66.0,65.0,29.91,East,89,0.0,-999.0,97,-99.99,,,0.00,weatherlink.com 1.10,2013-09-09 09:32:00,
2013-09-09 05:47:00,66.0,65.0,29.91,East,89,1.0,-999.0,97,-99.99,,,0.00,weatherlink.com 1.10,2013-09-09 09:47:00,
2013-09-09 06:02:00,65.9,65.0,29.91,East,89,0.0,-999.0,97,-99.99,,,0.00,weatherlink.com 1.10,2013-09-09 10:02:00,
2013-09-09 06:17:00,65.8,65.0,29.91,East,89,0.0,-999.0,97,-99.99,,,0.00,weatherlink.com 1.10,2013-09-09 10:17:00,
2013-09-09 06:32:00,65.8,65.0,29.91,East,89,0.0,-999.0,97,-99.99,,,0.00,weatherlink.com 1.10,2013-09-09 10:32:00,
2013-09-09 06:47:00,65.8,65.0,29.90,East,89,3.0,-999.0,98,-99.99,,,0.00,weatherlink.com 1.10,2013-09-09 10:47:00,
2013-09-09 07:02:00,65.9,65.0,29.90,East,90,0.0,-999.0,98,-99.99,,,0.00,weatherlink.com 1.10,2013-09-09 11:02:00,
2013-09-09 07:17:00,66.3,66.0,29.91,East,90,0.0,-999.0,98,-99.99,,,0.00,weatherlink.com 1.10,2013-09-09 11:17:00,
2013-09-09 07:32:00,66.5,66.0,29.92,East,90,0.0,-999.0,98,-99.99,,,0.00,weatherlink.com 1.10,2013-09-09 11:32:00,
2013-09-09 07:47:00,66.9,66.0,29.92,East,90,2.0,-999.0,98,-99.99,,,0.00,weatherlink.com 1.10,2013-09-09 11:47:00,
2013-09-09 08:03:00,67.6,67.0,29.92,SE,136,1.0,-999.0,99,-99.99,,,0.00,weatherlink.com 1.10,2013-09-09 12:03:00,
2013-09-09 08:18:00,68.4,68.0,29.92,SSE,157,2.0,-999.0,99,-99.99,,,0.00,weatherlink.com 1.10,2013-09-09 12:18:00,
2013-09-09 08:33:00,68.9,68.0,29.92,SSE,147,1.0,-999.0,98,-99.99,,,0.00,weatherlink.com 1.10,2013-09-09 12:33:00,
2013-09-09 08:48:00,69.4,69.0,29.92,SSE,163,0.0,-999.0,98,-99.99,,,0.00,weatherlink.com 1.10,2013-09-09 12:48:00,
2013-09-09 09:03:00,69.9,69.0,29.92,SE,130,1.0,-999.0,97,-99.99,,,0.00,weatherlink.com 1.10,2013-09-09 13:03:00,
2013-09-09 09:18:00,70.6,70.0,29.92,SE,130,2.0,-999.0,97,-99.99,,,0.00,weatherlink.com 1.10,2013-09-09 13:18:00,
2013-09-09 09:33:00,71.5,70.0,29.92,SSW,200,2.0,-999.0,95,-99.99,,,0.00,weatherlink.com 1.10,2013-09-09 13:33:00,
2013-09-09 09:48:00,72.5,70.0,29.92,SSW,200,1.0,-999.0,92,-99.99,,,0.00,weatherlink.com 1.10,2013-09-09 13:48:00,
2013-09-09 10:03:00,73.8,71.0,29.93,South,171,5.0,-999.0,90,-99.99,,,0.00,weatherlink.com 1.10,2013-09-09 14:03:00,
2013-09-09 10:18:00,75.3,71.0,29.93,South,178,4.0,-999.0,85,-99.99,,,0.00,weatherlink.com 1.10,2013-09-09 14:18:00,
2013-09-09 10:33:00,76.3,71.0,29.92,South,190,4.0,-999.0,83,-99.99,,,0.00,weatherlink.com 1.10,2013-09-09 14:33:00,
2013-09-09 10:48:00,78.2,72.0,29.92,South,190,7.0,-999.0,81,-99.99,,,0.00,weatherlink.com 1.10,2013-09-09 14:48:00,
2013-09-09 11:03:00,79.7,72.0,29.91,South,181,4.0,-999.0,78,-99.99,,,0.00,weatherlink.com 1.10,2013-09-09 15:03:00,
2013-09-09 11:18:00,80.6,73.0,29.92,SSW,206,11.0,-999.0,77,-99.99,,,0.00,weatherlink.com 1.10,2013-09-09 15:18:00,
2013-09-09 11:33:00,81.8,73.0,29.91,SSW,208,10.0,-999.0,75,-99.99,,,0.00,weatherlink.com 1.10,2013-09-09 15:33:00,
2013-09-09 11:48:00,83.1,74.0,29.91,South,184,4.0,-999.0,73,-99.99,,,0.00,weatherlink.com 1.10,2013-09-09 15:48:00,
2013-09-09 12:03:00,84.2,74.0,29.91,SSW,212,8.0,-999.0,71,-99.99,,,0.00,weatherlink.com 1.10,2013-09-09 16:03:00,
2013-09-09 12:18:00,85.7,74.0,29.90,SSW,202,5.0,-999.0,68,-99.99,,,0.00,weatherlink.com 1.10,2013-09-09 16:18:00,
2013-09-09 12:33:00,86.1,73.0,29.90,SSW,208,8.0,-999.0,66,-99.99,,,0.00,weatherlink.com 1.10,2013-09-09 16:33:00,
2013-09-09 12:48:00,86.8,73.0,29.90,South,188,13.0,-999.0,63,-99.99,,,0.00,weatherlink.com 1.10,2013-09-09 16:48:00,
2013-09-09 13:03:00,88.0,74.0,29.89,South,183,13.0,-999.0,63,-99.99,,,0.00,weatherlink.com 1.10,2013-09-09 17:03:00,
2013-09-09 13:18:00,88.6,74.0,29.88,SSW,194,11.0,-999.0,63,-99.99,,,0.00,weatherlink.com 1.10,2013-09-09 17:18:00,
2013-09-09 13:33:00,88.8,74.0,29.88,South,176,13.0,-999.0,62,-99.99,,,0.00,weatherlink.com 1.10,2013-09-09 17:33:00,
2013-09-09 13:48:00,89.7,74.0,29.88,SW,232,12.0,-999.0,61,-99.99,,,0.00,weatherlink.com 1.10,2013-09-09 17:48:00,
2013-09-09 14:03:00,90.3,75.0,29.88,South,184,7.0,-999.0,61,-99.99,,,0.00,weatherlink.com 1.10,2013-09-09 18:03:00,
2013-09-09 14:19:00,90.5,75.0,29.87,SSE,158,7.0,-999.0,60,-99.99,,,0.00,weatherlink.com 1.10,2013-09-09 18:19:00,
2013-09-09 14:34:00,90.9,75.0,29.87,SSW,199,12.0,-999.0,59,-99.99,,,0.00,weatherlink.com 1.10,2013-09-09 18:34:00,
2013-09-09 14:50:00,91.3,74.0,29.86,SW,223,10.0,-999.0,57,-99.99,,,0.00,weatherlink.com 1.10,2013-09-09 18:50:00,
2013-09-09 15:04:00,92.2,74.0,29.86,SSW,213,13.0,-999.0,56,-99.99,,,0.00,weatherlink.com 1.10,2013-09-09 19:04:00,
2013-09-09 15:19:00,91.6,74.0,29.86,SSW,207,11.0,-999.0,57,-99.99,,,0.00,weatherlink.com 1.10,2013-09-09 19:19:00,
2013-09-09 15:34:00,92.3,74.0,29.85,SW,216,11.0,-999.0,56,-99.99,,,0.00,weatherlink.com 1.10,2013-09-09 19:34:00,
2013-09-09 15:49:00,92.8,75.0,29.84,SW,214,13.0,-999.0,56,-99.99,,,0.00,weatherlink.com 1.10,2013-09-09 19:49:00,
2013-09-09 16:04:00,92.8,74.0,29.84,SW,224,11.0,-999.0,55,-99.99,,,0.00,weatherlink.com 1.10,2013-09-09 20:04:00,
2013-09-09 16:19:00,92.8,75.0,29.84,SSW,201,12.0,-999.0,56,-99.99,,,0.00,weatherlink.com 1.10,2013-09-09 20:19:00,
2013-09-09 16:34:00,93.0,75.0,29.84,SW,217,10.0,-999.0,56,-99.99,,,0.00,weatherlink.com 1.10,2013-09-09 20:34:00,
2013-09-09 16:49:00,93.0,74.0,29.84,SSW,209,9.0,-999.0,55,-99.99,,,0.00,weatherlink.com 1.10,2013-09-09 20:49:00,
2013-09-09 17:04:00,92.9,74.0,29.84,SW,214,8.0,-999.0,54,-99.99,,,0.00,weatherlink.com 1.10,2013-09-09 21:04:00,
2013-09-09 17:19:00,93.2,74.0,29.83,SSW,206,12.0,-999.0,54,-99.99,,,0.00,weatherlink.com 1.10,2013-09-09 21:19:00,
2013-09-09 17:34:00,93.4,74.0,29.83,SSW,197,15.0,-999.0,54,-99.99,,,0.00,weatherlink.com 1.10,2013-09-09 21:34:00,
2013-09-09 17:49:00,92.6,75.0,29.84,WSW,241,11.0,-999.0,56,-99.99,,,0.00,weatherlink.com 1.10,2013-09-09 21:49:00,
2013-09-09 18:04:00,92.2,75.0,29.83,SSW,211,13.0,-999.0,57,-99.99,,,0.00,weatherlink.com 1.10,2013-09-09 22:04:00,
2013-09-09 18:19:00,92.0,74.0,29.83,SSW,200,9.0,-999.0,56,-99.99,,,0.00,weatherlink.com 1.10,2013-09-09 22:19:00,
2013-09-09 18:34:00,91.5,75.0,29.84,SSW,196,13.0,-999.0,58,-99.99,,,0.00,weatherlink.com 1.10,2013-09-09 22:34:00,
2013-09-09 18:49:00,91.0,75.0,29.84,SSW,211,13.0,-999.0,59,-99.99,,,0.00,weatherlink.com 1.10,2013-09-09 22:49:00,
2013-09-09 19:04:00,90.3,75.0,29.84,SSW,210,9.0,-999.0,61,-99.99,,,0.00,weatherlink.com 1.10,2013-09-09 23:04:00,
2013-09-09 19:19:00,89.6,75.0,29.85,SSW,200,10.0,-999.0,62,-99.99,,,0.00,weatherlink.com 1.10,2013-09-09 23:19:00,
2013-09-09 19:34:00,88.8,75.0,29.85,SW,225,6.0,-999.0,64,-99.99,,,0.00,weatherlink.com 1.10,2013-09-09 23:34:00,
2013-09-09 19:49:00,87.9,75.0,29.85,SSW,203,6.0,-999.0,65,-99.99,,,0.00,weatherlink.com 1.10,2013-09-09 23:49:00,
2013-09-09 20:04:00,86.7,74.0,29.86,SSW,197,3.0,-999.0,67,-99.99,,,0.00,weatherlink.com 1.10,2013-09-10 00:04:00,
2013-09-09 20:19:00,85.5,75.0,29.86,SSW,196,2.0,-999.0,70,-99.99,,,0.00,weatherlink.com 1.10,2013-09-10 00:19:00,
2013-09-09 20:34:00,84.1,75.0,29.86,SSW,197,4.0,-999.0,73,-99.99,,,0.00,weatherlink.com 1.10,2013-09-10 00:34:00,
2013-09-09 20:49:00,83.5,75.0,29.86,SSW,196,2.0,-999.0,75,-99.99,,,0.00,weatherlink.com 1.10,2013-09-10 00:49:00,
2013-09-09 21:04:00,82.6,75.0,29.87,SSW,196,1.0,-999.0,77,-99.99,,,0.00,weatherlink.com 1.10,2013-09-10 01:04:00,
2013-09-09 21:19:00,82.5,75.0,29.87,SSW,196,5.0,-999.0,78,-99.99,,,0.00,weatherlink.com 1.10,2013-09-10 01:19:00,
2013-09-09 21:34:00,82.6,75.0,29.88,SSW,194,5.0,-999.0,78,-99.99,,,0.00,weatherlink.com 1.10,2013-09-10 01:34:00,
2013-09-09 21:49:00,82.5,75.0,29.88,SSW,199,8.0,-999.0,78,-99.99,,,0.00,weatherlink.com 1.10,2013-09-10 01:49:00,
2013-09-09 22:04:00,82.5,75.0,29.88,SSW,202,7.0,-999.0,78,-99.99,,,0.00,weatherlink.com 1.10,2013-09-10 02:04:00,
2013-09-09 22:19:00,82.1,75.0,29.89,SSW,198,5.0,-999.0,78,-99.99,,,0.00,weatherlink.com 1.10,2013-09-10 02:19:00,
2013-09-09 22:34:00,81.7,75.0,29.89,SSW,208,6.0,-999.0,79,-99.99,,,0.00,weatherlink.com 1.10,2013-09-10 02:34:00,
2013-09-09 22:49:00,81.3,75.0,29.89,SSW,198,5.0,-999.0,80,-99.99,,,0.00,weatherlink.com 1.10,2013-09-10 02:49:00,
2013-09-09 23:04:00,81.0,74.0,29.89,SSW,207,6.0,-999.0,80,-99.99,,,0.00,weatherlink.com 1.10,2013-09-10 03:04:00,
2013-09-09 23:19:00,80.8,74.0,29.90,South,190,7.0,-999.0,80,-99.99,,,0.00,weatherlink.com 1.10,2013-09-10 03:19:00,
2013-09-09 23:34:00,80.5,74.0,29.90,SSW,196,4.0,-999.0,81,-99.99,,,0.00,weatherlink.com 1.10,2013-09-10 03:34:00,
2013-09-09 23:49:00,80.0,74.0,29.90,SSW,199,3.0,-999.0,81,-99.99,,,0.00,weatherlink.com 1.10,2013-09-10 03:49:00,